Theta_e
332 330 328 328 327 325 323 322 321 321 322 322 322 321 320 319 319 318 318 317 315 315 314 315 315 315 315 314 313 313 313 315 316 315 313 310 307 306 306 305 304 306 309 310 311 312 312 311 307 305 305 304 303 302 303 302 301 302 302 302 301 301 302
330 328 327 327 326 324 322 321 321 322 322 322 321 320 319 318 318 317 316 315 314 313 313 313 313 313 312 312 311 310 309 309 311 311 311 309 308 308 308 309 309 307 307 308 309 309 310 309 307 307 307 307 305 303 302 302 302 302 302 301 301 301 301
328 327 326 324 323 322 321 321 321 321 322 322 320 319 318 318 317 316 315 314 313 313 312 312 311 310 309 308 306 305 305 306 307 308 308 308 309 309 309 309 310 309 308 308 308 308 308 308 307 306 305 306 307 305 302 302 302 302 302 302 301 301 300
327 326 325 324 323 322 321 321 321 321 322 321 319 318 317 317 316 315 314 313 312 312 311 311 310 308 307 305 303 303 304 305 306 306 306 307 307 307 307 307 307 307 307 307 307 306 307 308 307 306 305 304 305 305 303 303 303 303 302 301 301 301 300
328 326 325 324 323 323 322 321 320 321 321 320 318 317 316 316 315 314 313 312 312 312 311 310 308 307 305 304 303 303 304 305 305 306 306 307 306 306 306 305 305 305 305 305 306 306 306 306 307 307 305 305 306 304 303 304 303 302 301 301 300 300 300
329 327 327 325 324 323 322 320 320 321 321 320 318 317 316 315 314 314 313 312 311 310 309 308 307 305 304 304 303 304 304 304 304 305 306 306 306 305 305 304 304 304 304 304 304 305 305 305 306 306 306 306 307 305 303 303 303 302 301 300 299 300 300
329 328 327 325 325 323 321 320 321 321 320 319 318 316 315 314 314 313 312 311 310 309 308 307 305 304 303 303 303 303 303 303 303 304 305 305 305 305 304 304 303 303 303 303 303 303 304 304 304 305 305 305 306 305 303 303 302 301 301 299 299 299 299
328 327 327 325 324 322 321 320 320 319 319 318 317 315 314 313 313 312 311 310 309 308 307 306 305 303 303 303 303 303 303 303 303 303 303 304 304 304 303 303 303 302 302 302 302 302 302 303 302 302 303 304 305 305 304 303 302 301 301 299 300 299 298
327 327 327 325 323 321 321 320 318 318 317 316 315 314 314 313 313 312 311 310 309 308 306 305 304 303 303 303 302 302 303 302 302 302 302 303 303 303 303 302 302 302 302 302 302 302 302 302 302 301 301 302 303 303 303 303 303 302 301 300 300 299 298
327 327 327 324 322 321 320 317 316 316 316 315 314 314 314 313 312 311 310 309 308 307 306 305 304 303 303 303 303 303 303 302 302 302 302 302 303 302 302 302 302 301 301 301 301 301 301 301 301 301 301 300 301 301 302 302 303 303 301 300 300 299 298
326 327 325 322 321 321 319 315 315 316 315 314 313 313 313 312 311 310 310 309 308 307 306 305 304 303 303 303 303 302 302 302 302 302 301 302 302 302 301 301 301 301 301 301 301 301 301 301 300 300 300 300 300 301 301 302 302 302 301 300 300 299 299
325 326 324 321 321 320 317 314 315 315 314 312 312 312 312 311 311 310 309 308 307 307 305 304 304 303 303 303 302 302 302 302 302 302 301 301 301 301 301 301 301 301 301 301 301 300 300 300 300 300 300 300 301 301 301 301 302 302 301 300 300 299 299
324 324 322 321 320 317 315 315 315 314 312 312 312 312 311 311 310 310 309 308 307 306 305 305 304 303 303 303 303 302 302 301 301 302 301 301 301 301 300 301 301 301 301 301 300 300 300 300 300 300 300 300 300 300 301 301 301 302 301 300 299 299 298
324 323 321 321 319 315 314 315 314 313 312 311 311 311 310 310 310 309 308 308 307 306 305 305 304 304 303 303 303 302 302 301 301 301 301 301 300 300 300 300 300 300 300 300 300 300 300 300 300 300 300 300 300 300 300 300 301 301 300 299 299 299 299
323 322 321 319 316 314 314 315 314 313 311 310 310 310 310 309 309 309 308 307 306 306 305 305 304 303 303 303 303 302 302 301 302 302 301 301 300 300 300 300 300 300 300 300 300 300 300 300 300 300 300 300 300 300 299 299 300 300 300 300 299 299 299
321 321 320 317 315 314 314 314 313 312 311 310 310 309 309 309 309 308 307 307 306 305 305 305 304 303 302 302 302 302 302 302 302 302 301 301 300 300 300 300 300 301 301 301 301 300 300 300 300 300 300 300 300 299 299 299 300 300 300 300 299 299 299
321 321 318 315 314 314 314 313 313 312 310 309 309 309 309 308 308 308 307 307 306 305 305 305 303 302 302 302 302 302 302 302 302 302 301 301 301 300 300 300 300 301 301 301 301 300 300 300 300 300 300 299 299 299 299 299 299 299 299 300 300 299 299
320 318 316 315 315 314 313 313 312 311 309 309 309 309 308 307 307 307 307 307 306 305 305 305 303 302 302 302 302 302 302 302 302 302 301 301 301 301 300 300 300 301 301 301 301 300 300 300 300 300 300 299 299 299 299 299 299 299 299 300 299 299 299
317 316 316 315 314 313 312 312 311 310 309 308 308 308 307 307 307 307 307 306 306 305 305 304 304 303 303 302 302 302 302 302 302 302 301 301 301 301 301 300 301 301 301 301 300 300 299 299 299 300 299 299 298 298 298 298 298 298 299 298 298 299 299
316 316 316 314 313 312 312 312 311 309 308 308 307 307 307 307 307 307 306 306 306 305 305 304 304 303 303 303 303 303 302 302 302 302 302 301 301 301 301 301 301 301 299 299 299 299 298 298 298 298 298 298 298 298 298 297 297 298 298 298 298 298 298
317 316 315 314 313 311 311 311 310 308 308 307 307 307 307 307 307 307 306 306 306 305 305 305 304 303 303 303 303 303 303 302 302 302 302 301 301 301 301 301 301 300 298 297 297 297 296 296 297 297 297 296 296 296 296 296 297 297 297 297 297 297 298
316 315 314 313 311 310 310 310 308 307 307 307 306 306 306 307 307 307 306 306 306 305 305 305 304 304 303 303 303 303 303 303 302 302 302 302 302 301 301 301 299 296 295 294 294 294 294 294 295 295 295 295 295 295 295 296 296 296 296 296 297 297 297
315 314 313 311 310 309 308 308 307 306 306 306 306 306 306 306 306 306 306 306 306 305 305 305 304 303 303 303 303 303 303 303 303 303 302 302 302 301 301 301 298 295 295 295 294 294 294 294 294 294 293 292 292 293 295 295 295 295 295 296 296 297 297
313 312 311 310 309 308 307 307 306 305 304 304 304 305 305 305 305 305 305 305 305 305 306 305 303 302 301 302 303 303 303 303 303 303 302 302 303 302 302 302 300 298 297 297 297 296 296 296 295 294 293 292 292 292 293 293 294 294 295 295 296 297 297
312 312 310 309 308 308 307 306 304 304 303 302 301 301 300 301 304 305 305 305 305 305 306 304 301 300 300 300 302 303 303 303 303 303 303 303 302 302 302 301 300 300 298 296 297 298 298 298 297 296 296 295 294 292 292 292 293 293 294 295 296 296 296
311 310 309 308 308 307 306 305 304 303 303 302 299 296 293 297 303 305 305 305 305 306 305 303 300 300 299 299 300 303 303 303 302 303 303 302 302 302 302 301 300 300 299 298 298 298 298 298 298 298 298 298 296 295 294 294 293 292 293 294 295 295 295
310 309 308 308 307 306 304 304 303 303 303 301 296 293 294 299 303 305 304 305 305 305 304 302 300 300 299 299 299 300 302 303 302 302 302 302 302 302 301 301 300 299 299 299 298 296 296 298 298 299 299 299 298 297 297 296 294 293 293 294 294 295 295
309 308 307 307 306 305 304 303 302 302 303 299 295 295 299 302 304 304 304 305 305 305 303 301 300 300 300 300 299 299 302 302 301 302 302 301 302 302 300 299 299 299 299 299 296 294 294 296 298 300 299 299 299 298 298 297 295 294 293 293 293 294 294
309 308 307 306 305 304 303 302 302 302 302 300 298 299 301 303 303 304 304 304 305 304 302 300 300 300 299 299 298 299 301 301 300 301 301 301 301 301 299 299 299 298 299 299 295 293 293 294 297 300 299 299 299 299 299 297 295 295 294 293 292 292 292
309 308 306 305 305 304 304 304 304 303 302 301 301 301 302 303 303 303 304 304 304 303 301 300 299 299 298 298 298 298 299 299 299 300 301 301 301 300 298 298 298 299 300 298 295 294 293 294 297 299 299 299 300 299 299 298 296 295 295 294 294 293 293
308 308 307 306 305 305 305 304 304 303 302 302 301 301 302 302 302 302 303 303 303 302 300 299 299 298 298 297 296 297 297 298 299 301 301 300 300 299 297 295 295 297 299 297 294 294 294 294 297 299 298 299 299 299 298 297 296 296 296 296 296 296 296
309 308 307 306 305 304 304 304 303 302 302 301 301 300 300 301 301 302 302 302 302 301 300 299 298 298 297 294 293 296 298 299 300 301 300 300 299 299 297 295 293 295 296 295 294 294 294 294 296 297 298 298 299 298 297 295 295 295 296 297 298 297 297
309 308 307 305 304 304 304 303 302 302 301 300 300 299 299 300 301 301 302 302 301 300 300 299 297 295 293 290 291 296 300 299 300 301 300 299 299 298 298 297 295 294 294 294 294 294 294 294 295 296 298 298 297 296 294 294 294 295 296 298 298 298 297
309 308 307 305 304 303 303 303 302 301 300 299 299 299 299 300 300 300 301 301 300 299 298 296 293 291 290 289 290 296 300 300 299 300 299 299 299 298 299 299 298 296 294 294 295 294 295 294 294 295 297 297 295 294 293 293 294 296 297 298 298 297 297
309 307 306 305 304 303 302 302 301 300 299 299 299 299 299 299 300 300 300 299 299 298 296 292 290 290 290 290 291 295 300 300 299 299 299 298 299 299 298 299 299 297 294 294 295 295 295 295 295 295 296 295 294 294 293 294 296 297 297 297 297 297 297
307 306 305 304 304 303 302 301 300 299 298 299 299 299 298 298 299 299 299 298 297 296 294 291 290 290 291 291 292 296 299 298 297 298 299 299 299 299 299 299 299 296 294 295 295 295 295 295 295 296 296 295 294 294 295 296 297 297 297 297 297 297 297
305 305 304 303 303 303 302 301 300 299 298 298 299 298 297 297 297 297 297 296 295 296 295 293 291 290 291 292 292 295 296 295 295 297 299 299 299 299 299 299 298 295 295 295 295 295 296 296 296 296 296 295 295 296 297 297 297 297 297 297 297 297 297
Wind_Speed
16 17 19 19 18 17 15 13 11 9 6 5 5 4 4 5 5 6 6 6 7 7 7 7 8 8 7 7 7 6 6 5 4 5 6 6 7 8 9 10 11 11 10 9 7 3 1 4 5 5 5 5 6 6 4 5 7 7 7 7 7 8 8
15 20 22 21 19 17 15 13 11 7 5 4 4 4 5 6 6 6 7 7 8 7 8 9 9 9 9 9 9 8 8 9 8 7 7 7 6 6 5 6 7 8 9 9 8 7 4 3 3 3 3 3 4 5 4 3 5 6 7 7 7 8 9
18 22 22 20 18 17 15 13 10 7 4 3 4 5 6 6 7 7 8 8 9 9 9 10 10 10 10 11 11 12 12 11 11 10 9 8 8 7 6 5 5 5 6 7 7 8 6 5 4 4 3 1 2 3 2 1 2 3 5 7 7 8 9
22 24 22 19 18 16 16 13 10 7 5 4 5 6 6 7 7 8 8 9 9 10 10 10 10 10 10 12 13 14 14 12 12 12 12 11 10 10 9 8 8 8 7 7 8 8 7 6 4 4 5 4 2 3 2 1 1 2 5 7 7 8 9
25 23 21 20 19 17 15 14 11 8 6 6 6 6 6 7 8 8 9 9 9 9 9 9 9 10 10 11 12 12 12 11 11 11 11 10 10 10 10 10 10 10 10 9 8 8 8 7 6 5 6 5 3 4 3 1 1 2 5 8 8 9 9
25 23 21 22 20 17 16 15 11 9 7 6 6 6 7 8 8 9 9 9 9 10 10 10 10 10 11 12 12 12 12 12 11 10 10 10 10 10 10 10 10 11 11 10 9 9 9 8 8 6 6 5 3 4 4 3 3 3 6 10 10 9 11
23 22 22 23 19 16 17 15 10 8 7 6 6 7 8 9 9 9 10 10 10 10 10 10 11 11 11 12 12 12 12 11 11 11 11 11 11 11 10 11 11 11 11 11 10 10 9 9 9 8 7 4 2 4 5 4 5 6 8 11 10 10 12
24 24 24 23 18 17 18 15 10 8 7 7 8 10 10 11 10 11 11 11 11 11 11 11 11 11 12 11 11 11 11 11 11 12 12 12 12 12 11 12 12 11 11 10 10 10 10 9 9 9 9 6 3 4 5 5 6 7 10 12 11 11 14
27 26 24 23 20 19 18 14 11 9 8 8 10 12 12 12 12 12 12 12 12 11 11 11 11 11 11 11 11 10 10 11 12 12 12 11 12 12 12 12 11 11 10 9 9 9 9 9 8 8 9 8 6 4 4 5 6 7 10 13 12 12 15
27 26 24 23 22 21 18 15 13 10 9 10 12 12 13 12 12 13 12 12 12 11 11 11 11 11 11 10 10 10 10 11 11 11 10 10 10 11 11 11 10 10 9 9 9 9 8 8 8 8 8 9 8 6 5 5 5 7 12 14 13 15 17
27 25 24 24 23 21 19 17 14 11 11 12 13 13 13 13 13 13 13 13 12 11 11 11 11 11 10 10 10 10 10 10 11 11 10 10 10 10 10 10 9 9 8 8 8 8 8 7 7 7 7 7 8 7 6 6 5 7 12 14 14 16 18
26 25 24 24 22 20 19 17 14 12 12 13 13 14 14 14 14 13 13 13 12 12 11 11 11 10 10 10 10 10 10 10 10 10 9 9 9 9 9 9 8 8 7 8 8 8 7 7 6 7 6 6 6 6 6 7 6 8 12 14 15 16 18
25 25 25 24 22 21 19 16 14 13 14 14 14 14 14 14 14 14 13 13 13 12 11 11 10 10 10 10 9 10 10 10 10 10 9 9 8 8 8 8 8 7 6 7 7 7 7 7 6 6 6 5 5 5 6 7 8 10 13 14 16 17 17
25 26 26 24 23 21 18 15 14 14 14 15 15 15 14 14 14 14 14 13 13 12 12 11 10 10 10 10 10 10 10 10 10 10 9 9 8 8 8 9 8 7 7 7 7 7 6 6 6 6 5 5 5 5 7 8 9 12 14 15 16 17 17
26 27 26 25 23 20 17 16 14 14 15 15 15 15 15 14 14 14 14 13 13 13 12 11 10 10 11 11 11 10 10 10 9 9 9 9 8 8 8 8 8 7 7 7 7 7 7 6 6 6 6 5 6 7 8 9 10 12 15 16 17 17 17
28 28 27 26 23 18 17 16 14 14 15 15 14 14 14 15 14 14 14 14 13 13 12 11 10 11 12 12 11 10 10 9 9 9 8 8 8 8 8 7 6 6 6 6 6 7 7 7 6 6 7 6 7 8 9 10 11 12 15 17 17 18 18
29 29 28 25 20 18 18 15 14 14 15 15 14 14 14 14 14 14 14 14 14 13 12 11 10 11 12 11 11 11 10 9 8 8 8 8 8 7 7 6 6 5 5 6 6 6 7 8 7 6 7 8 8 9 10 10 11 13 15 17 17 18 18
31 29 25 21 19 19 18 15 14 15 15 15 15 14 14 14 14 14 14 14 14 14 12 11 11 11 11 11 11 10 10 9 8 8 8 8 7 7 6 6 6 5 5 6 6 7 8 8 7 7 8 9 9 11 12 12 12 13 14 16 18 18 18
29 25 21 19 20 20 17 15 14 15 15 16 15 15 15 14 14 15 14 14 14 14 13 12 11 11 11 11 10 10 9 9 8 8 7 7 6 6 6 5 5 5 6 6 6 7 8 9 8 8 9 10 11 12 12 13 14 14 15 16 18 18 19
24 21 20 20 21 19 17 15 15 15 15 15 15 15 15 14 14 14 14 14 14 14 13 12 11 11 11 11 10 9 9 8 8 7 6 6 6 5 5 5 4 5 6 6 6 7 9 10 9 9 10 10 12 13 13 13 14 15 15 16 17 18 19
21 21 21 21 21 20 17 15 15 15 14 13 13 13 14 14 14 13 14 14 13 13 13 12 12 11 11 11 10 9 9 8 7 6 6 5 5 4 4 4 4 5 5 6 5 6 9 11 10 9 10 11 12 13 13 13 14 15 16 16 17 17 19
20 22 22 22 24 22 18 16 16 15 13 12 12 11 12 13 14 13 13 13 13 13 13 12 12 12 11 10 10 9 8 8 7 6 6 5 4 3 3 3 3 3 4 5 5 6 10 12 12 11 10 11 12 12 12 13 14 15 16 17 17 18 19
21 23 22 24 28 26 21 19 18 16 14 12 11 11 11 11 13 13 13 13 13 13 12 12 13 14 13 11 10 8 8 7 6 6 5 5 4 3 3 2 1 2 4 6 5 6 9 11 13 13 11 11 11 11 11 12 14 15 16 17 17 18 19
22 23 23 24 28 27 24 21 18 17 15 13 11 11 10 9 10 12 13 13 13 13 11 12 15 17 15 13 11 8 8 7 6 6 5 5 4 4 3 3 1 1 4 6 5 6 9 11 13 14 12 10 10 11 11 11 13 14 15 16 17 18 18
23 22 22 22 25 26 24 20 19 20 19 17 15 14 14 12 10 11 13 13 13 13 11 13 17 16 15 15 13 9 7 7 7 6 6 5 4 4 4 3 1 1 2 5 5 6 9 11 13 14 13 10 11 12 12 12 12 13 14 16 17 18 19
23 22 22 25 27 26 23 22 23 25 22 19 18 18 18 16 13 12 13 13 14 13 12 16 18 17 15 15 14 10 8 8 8 7 6 5 4 4 4 3 2 1 2 4 5 6 8 9 11 12 12 10 10 11 11 12 14 15 15 15 17 19 19
24 23 26 31 30 26 26 27 28 26 22 19 17 17 18 17 15 14 13 13 13 12 13 18 19 17 15 15 14 12 8 7 8 6 6 5 4 4 4 2 2 1 2 3 5 8 9 9 10 10 10 9 9 10 9 9 13 16 15 14 16 18 19
25 23 26 30 29 27 29 29 26 23 20 18 19 18 17 16 15 15 14 14 13 12 14 19 19 18 16 14 14 11 6 6 7 6 6 6 5 5 4 3 2 1 2 3 6 10 11 11 11 9 10 10 10 10 8 9 13 17 16 16 16 17 19
24 22 22 24 23 23 26 26 23 20 17 16 17 17 16 15 16 16 14 14 13 12 15 19 19 17 16 14 13 10 6 7 8 7 7 7 6 6 4 3 2 2 2 3 8 10 11 13 11 10 11 12 12 11 10 11 17 19 20 21 20 18 20
25 24 24 23 21 21 22 21 20 18 16 15 15 15 15 15 16 16 16 15 13 12 16 20 18 17 16 14 13 10 8 8 9 8 8 8 7 6 5 4 2 2 2 3 7 9 11 13 11 10 12 12 12 12 11 14 19 20 22 24 22 22 23
28 29 28 25 23 23 22 21 20 18 17 16 15 15 15 14 15 16 16 15 14 13 16 20 19 17 16 15 13 11 9 9 9 8 9 8 7 6 5 5 2 1 2 3 6 8 10 12 10 10 13 12 12 13 14 17 20 21 22 23 21 22 23
31 33 31 27 26 28 28 25 23 19 16 15 14 14 14 14 14 15 14 15 14 13 15 19 19 17 16 16 14 11 9 9 9 9 9 9 7 6 6 5 2 1 2 3 6 7 9 10 10 10 12 12 12 14 16 19 21 21 22 21 20 20 20
35 35 33 31 31 33 31 27 23 18 15 13 13 13 14 14 14 14 13 14 14 13 14 18 19 17 16 16 15 13 9 9 10 10 9 9 8 7 7 6 4 2 2 3 5 7 8 9 10 10 10 11 12 15 18 21 21 21 21 20 19 19 18
36 36 34 33 33 31 29 26 24 19 14 14 14 14 14 14 13 14 13 13 13 12 14 17 17 16 15 15 17 15 9 8 10 9 9 9 8 7 7 6 5 4 4 4 5 7 8 9 11 10 9 11 14 17 20 21 20 19 18 18 18 18 17
35 35 33 32 32 30 26 26 25 20 15 15 15 15 15 13 13 13 12 12 13 12 13 16 16 15 15 15 18 17 9 8 11 10 8 8 7 6 6 5 5 5 5 4 5 6 7 9 11 10 10 14 17 18 19 18 16 16 17 17 17 18 18
35 34 33 32 32 30 25 23 22 19 16 16 15 15 15 13 12 13 12 12 12 11 13 15 15 14 15 16 19 17 11 12 14 10 6 7 7 6 5 4 4 6 5 5 5 6 7 8 9 10 12 15 16 16 15 14 14 15 16 16 17 18 18
35 35 33 31 29 28 26 23 20 18 17 17 15 15 15 14 13 14 13 13 13 12 13 13 13 14 15 16 19 17 13 15 16 11 6 6 5 5 5 5 5 6 5 5 5 6 6 7 9 10 11 13 13 12 11 12 13 15 15 16 17 18 18
Wind_Direction
165 162 163 164 164 160 153 146 137 120 91 56 41 44 72 87 92 90 89 87 86 83 79 80 79 81 83 83 85 84 82 83 85 98 102 97 92 77 67 68 66 59 53 46 31 15 155 135 124 120 99 81 67 61 57 44 36 29 23 17 10 7 2
159 160 164 165 165 163 155 145 138 119 85 61 64 87 98 98 98 96 95 93 90 87 86 88 86 88 90 87 87 88 88 88 82 87 97 97 99 94 81 77 72 68 65 55 44 33 33 75 111 109 109 135 102 61 49 45 33 25 18 9 4 4 358
156 159 160 158 160 163 158 149 141 125 101 90 97 105 106 104 103 101 100 98 95 95 94 94 94 92 93 94 96 95 93 91 85 85 89 89 87 80 75 80 81 78 73 61 52 48 47 52 68 71 61 94 117 75 59 38 8 3 4 360 357 358 356
161 159 157 159 163 163 161 156 147 131 118 119 117 112 109 108 109 106 104 104 101 101 100 98 98 96 94 96 98 97 93 89 88 86 83 83 83 79 75 75 74 70 68 63 51 46 48 46 47 54 43 31 50 72 67 25 342 345 355 354 353 354 351
170 164 163 168 170 168 168 164 152 138 129 127 121 116 120 121 117 112 109 108 104 103 104 103 101 101 99 97 96 95 92 88 87 87 84 84 85 83 78 76 76 72 66 62 54 48 46 37 28 33 34 22 23 46 42 18 43 26 7 359 354 355 351
173 169 170 174 175 177 176 167 153 143 137 132 128 128 134 132 124 120 116 112 110 108 108 106 105 104 101 100 99 96 93 90 87 88 89 86 85 85 83 79 76 73 67 62 56 53 46 38 33 26 20 15 10 18 23 31 39 26 11 4 356 354 352
169 169 175 178 176 178 176 165 150 144 140 136 139 140 143 139 130 125 121 117 117 115 113 111 108 106 105 103 103 99 95 93 92 91 89 87 85 85 86 83 78 74 69 63 60 55 49 43 38 23 9 6 11 15 17 26 30 22 6 359 355 353 350
173 174 178 180 176 173 170 159 145 141 136 134 141 143 145 142 133 129 126 123 123 120 118 115 111 109 109 107 106 103 101 99 97 93 90 89 88 86 86 85 80 76 71 66 64 60 55 50 43 29 14 7 11 21 17 15 20 20 6 355 352 352 349
180 179 181 184 180 173 168 158 146 138 132 136 141 142 144 142 136 134 131 128 127 126 122 119 116 116 114 111 111 109 107 104 99 96 93 91 89 87 86 85 84 81 76 73 70 65 61 56 48 38 28 19 7 1 5 8 10 9 3 356 348 347 349
184 184 185 185 178 171 167 159 149 138 136 141 142 144 145 142 140 138 135 133 132 130 126 122 122 123 121 118 119 116 112 108 102 98 96 93 90 88 87 87 88 86 82 78 73 67 64 59 51 43 37 28 15 2 352 353 359 354 351 351 343 339 340
185 187 187 181 174 171 167 159 149 140 140 144 146 147 146 144 144 142 139 138 136 132 130 129 129 130 127 125 124 119 115 111 106 101 97 94 91 91 92 93 92 90 86 80 74 68 61 57 52 44 38 31 20 12 353 337 343 347 340 338 335 332 330
186 188 186 179 173 170 166 157 148 143 144 148 151 150 149 149 149 146 144 142 139 138 136 135 136 136 134 132 129 123 119 114 109 104 100 96 94 97 100 99 95 92 88 81 74 67 58 51 49 40 33 27 17 7 347 329 321 332 332 326 324 325 324
188 188 183 178 173 167 163 155 147 145 146 151 155 154 154 154 152 150 148 145 144 144 142 142 142 142 142 139 135 128 123 116 111 107 104 101 102 103 103 100 96 90 87 81 71 62 54 46 42 37 27 17 10 356 340 326 312 314 322 320 318 321 322
189 186 181 177 172 165 160 153 147 147 150 155 158 156 156 156 155 153 151 150 150 149 148 148 148 149 148 143 136 131 127 121 114 111 111 109 107 107 104 100 95 86 80 76 66 56 47 38 34 30 18 7 3 355 339 327 314 311 317 320 320 320 322
187 182 179 175 170 164 158 153 148 149 154 158 159 158 157 157 157 156 155 155 154 153 154 153 153 153 150 144 139 135 132 128 121 117 117 115 112 111 107 102 96 87 76 69 62 50 38 28 26 20 11 1 352 347 338 327 318 313 315 320 322 323 324
182 180 178 174 168 161 156 152 150 153 158 159 159 159 159 159 159 158 158 158 157 158 157 154 154 153 150 147 143 140 139 134 129 127 123 119 116 113 110 103 96 87 75 65 59 48 33 22 20 14 6 357 346 340 335 327 320 316 316 318 323 325 326
180 179 177 172 165 159 155 151 153 158 160 159 159 160 160 160 161 161 161 162 161 162 160 155 154 152 151 150 146 144 143 138 136 133 123 119 117 114 111 103 94 84 72 62 53 42 30 20 16 12 3 354 348 341 333 327 323 320 317 317 321 324 324
181 178 172 166 161 158 155 152 155 161 162 162 162 160 160 162 165 166 166 166 165 164 162 157 153 152 152 152 150 147 145 143 141 134 124 119 115 111 108 101 93 80 65 57 48 35 24 17 12 9 1 354 349 341 334 330 327 324 321 318 320 323 323
177 171 164 162 161 159 156 154 158 162 166 167 164 162 163 166 169 170 169 169 168 166 163 159 155 156 156 155 153 150 148 148 145 138 132 124 117 111 103 97 91 75 58 50 43 30 19 14 10 5 358 352 347 341 335 333 331 328 327 323 322 323 325
168 165 164 164 162 159 159 159 161 164 168 169 167 166 167 169 172 172 171 170 169 166 164 162 159 159 159 159 157 154 153 152 150 147 144 134 124 113 100 94 88 72 54 42 38 30 19 14 8 2 358 352 345 341 337 335 335 333 331 329 327 327 327
164 167 169 166 164 161 160 161 161 163 166 168 169 171 172 172 171 171 172 171 170 168 167 166 165 165 164 163 161 160 160 158 154 154 154 150 141 125 107 93 80 70 51 36 35 34 25 18 10 2 359 353 345 342 339 337 338 338 335 333 331 330 328
163 167 166 165 168 165 160 160 160 158 160 164 171 177 178 175 171 170 171 171 170 171 172 171 171 169 167 166 167 166 166 165 165 164 164 166 164 153 134 102 81 73 47 33 34 34 25 19 14 6 359 353 348 344 342 341 342 341 337 334 332 333 331
162 164 163 169 175 173 167 167 162 156 157 162 170 177 180 181 177 173 172 173 173 175 177 179 179 175 169 167 169 169 171 172 174 175 174 176 178 181 179 155 111 40 25 22 17 19 18 13 10 7 5 4 360 351 345 344 345 343 337 333 333 333 332
164 166 167 172 176 176 176 172 161 159 166 168 169 170 171 180 187 182 176 176 178 178 182 188 186 180 174 169 167 169 175 177 180 184 184 185 187 190 193 191 198 348 8 4 347 345 353 353 356 0 8 16 12 3 358 351 345 342 337 332 330 331 332
166 165 163 164 171 177 178 169 163 171 179 182 185 183 178 183 196 193 182 180 181 183 191 195 187 180 177 174 170 171 180 182 185 191 192 193 194 189 191 202 211 238 339 359 356 342 341 339 340 347 356 5 3 358 1 1 353 343 334 329 327 330 331
164 163 164 169 175 176 173 169 173 180 183 187 192 190 183 186 197 196 185 182 184 186 194 194 186 180 180 179 176 178 185 189 191 194 193 195 199 188 186 200 202 230 313 353 1 347 340 337 335 338 347 353 351 346 350 0 360 348 335 327 324 326 329
165 166 173 179 179 174 174 177 180 182 182 183 184 182 182 187 194 193 187 184 185 187 192 191 186 185 185 185 185 187 190 190 190 192 189 191 197 188 185 200 207 264 323 343 349 346 344 339 334 336 343 344 344 343 344 352 355 349 340 331 324 321 322
166 167 174 180 179 177 180 181 178 176 177 179 178 179 183 188 189 187 186 185 183 186 191 190 189 190 191 189 191 195 198 193 192 194 191 189 191 184 179 190 211 300 332 330 342 350 352 346 338 337 342 342 343 347 346 339 340 341 340 335 326 318 318
165 165 169 174 174 174 177 177 174 173 173 176 179 181 183 185 184 181 181 184 182 183 190 191 191 193 192 190 192 198 205 201 199 197 190 185 182 179 180 193 220 293 323 326 340 351 358 354 345 338 341 343 344 345 344 336 334 335 336 337 336 332 331
163 166 168 168 169 171 172 172 172 173 172 174 179 180 179 180 181 179 179 182 181 181 188 191 192 192 192 194 196 201 207 205 200 193 184 180 177 176 182 193 216 305 313 328 339 350 359 357 348 340 340 342 342 342 340 336 334 332 332 333 335 337 337
168 172 173 171 170 171 171 170 174 177 177 176 177 177 175 174 177 179 181 182 179 177 184 191 194 195 199 203 201 201 206 201 193 186 179 177 178 177 182 190 199 282 290 326 342 350 359 357 346 340 340 339 338 339 338 334 331 329 328 328 329 329 329
177 178 177 173 173 175 176 178 182 181 177 175 173 173 172 170 173 177 178 180 179 176 183 194 199 201 206 207 200 199 206 198 187 184 180 176 178 180 184 194 208 253 275 318 338 345 354 355 346 339 339 338 337 336 334 330 325 323 322 323 324 323 323
183 182 181 180 181 182 181 183 184 178 173 173 170 169 171 171 171 174 176 178 178 177 187 199 204 205 207 204 194 192 204 198 185 183 181 176 179 184 191 203 211 232 280 306 330 339 343 347 346 340 337 338 336 331 327 324 320 318 317 317 319 321 322
187 186 186 184 183 181 182 185 185 175 166 167 166 168 172 171 170 174 178 178 177 181 195 202 204 203 203 201 191 185 193 199 186 180 182 181 181 185 190 196 201 224 275 294 316 328 330 338 343 339 332 333 334 330 327 322 316 316 317 318 321 325 327
189 187 186 185 182 180 182 187 187 177 163 163 166 168 168 166 169 173 176 179 178 183 196 202 203 201 199 197 187 178 180 196 185 174 177 182 181 185 187 186 200 228 260 281 304 317 322 333 337 333 330 334 335 334 332 324 315 317 323 324 325 329 331
187 185 185 184 183 183 182 182 182 176 169 167 168 165 162 164 172 174 172 177 177 178 188 197 202 200 194 189 183 177 179 187 178 168 176 185 184 185 184 190 217 237 254 269 290 309 320 331 333 329 330 334 337 338 334 326 321 324 328 329 330 333 334
185 186 185 182 182 184 182 178 176 174 173 173 169 163 164 170 178 177 175 176 177 178 184 191 200 198 190 185 184 183 184 184 178 174 181 186 188 191 192 205 223 237 252 265 289 308 318 331 336 334 335 338 342 343 335 330 333 335 334 336 337 337 336